Lid_Strength_Index
-1 -1 2 2 7 8 9 8 6 6 6 4 4 5 5 4 6 7 1 -0 -0 -0 -1 -1 -1 -1 -1 -1 -1 -1 -1 -1 -1 -1 -1 -1 -2 -2 -2 -2 -2 -2 -2 -2 -2 -2 -2 -2 -1
-1 1 3 4 9 10 9 6 8 5 5 4 4 4 5 6 3 2 1 -0 -0 -1 -1 -1 -1 -1 -1 -1 -1 -1 -1 -1 -1 -2 -2 -2 -2 -2 -2 -2 -2 -2 -2 -2 -2 -2 -2 -2 -1
-0 3 5 7 9 10 8 7 6 6 5 4 5 3 4 5 3 2 0 -0 -1 -1 -1 -2 -1 -1 -1 -1 -1 -1 -1 -1 -1 -1 -2 -2 -2 -2 -2 -2 -3 -2 -2 -2 -2 -2 -1 -1 -1
2 4 5 8 9 7 6 6 6 6 5 4 4 5 3 2 2 1 -0 -0 -0 -0 -1 -1 -1 -1 -1 -1 -1 -1 -1 -1 -2 -2 -2 -2 -2 -2 -2 -2 -2 -3 -2 -2 -2 -2 -1 -1 -1
2 4 9 9 9 6 5 6 6 6 6 5 4 6 4 2 1 0 -0 -0 -0 -0 -1 -1 -1 -1 -1 -1 -1 -1 -1 -1 -2 -2 -2 -2 -2 -2 -2 -2 -2 -2 -2 -2 -2 -2 -1 -1 -1
6 5 9 10 9 6 5 6 6 6 6 5 5 4 4 1 1 0 -0 -0 -0 -0 -1 -1 -1 -1 -1 -1 -1 -1 -1 -1 -1 -1 -2 -2 -2 -2 -2 -2 -2 -2 -2 -2 -2 -2 -1 -1 -1
6 8 10 9 9 8 7 5 7 7 6 5 3 5 3 2 1 0 -0 -0 -0 -1 -1 -1 -1 -1 -1 -1 -1 -1 -1 -1 -1 -1 -1 -1 -2 -2 -2 -2 -2 -2 -2 -2 -2 -2 -1 -1 -1
4 6 8 8 10 9 6 5 7 7 7 3 3 5 5 2 1 0 -0 0 -0 -0 -0 -1 -1 -1 -1 -1 -1 -1 -1 -1 -1 -1 -1 -1 -1 -2 -2 -1 -2 -2 -2 -2 -2 -1 -1 -1 -1
3 7 8 9 9 9 6 6 6 5 5 4 4 3 2 1 1 1 1 1 0 0 -0 -1 -1 -1 -1 -1 -1 -1 -1 -1 -1 -1 -1 -1 -2 -2 -2 -2 -2 -2 -2 -2 -1 -1 -1 -1 -1
6 8 7 5 6 8 7 6 5 6 6 4 4 3 2 2 2 2 2 2 1 1 0 -0 -1 -1 -1 -1 -2 -1 -1 -1 -2 -2 -2 -2 -2 -2 -2 -2 -2 -2 -2 -1 -1 -1 -1 -1 -1
5 8 6 5 5 6 8 7 4 5 5 4 4 3 3 3 2 2 2 1 1 1 0 -0 -1 -1 -1 -1 -1 -1 -1 -1 -1 -2 -2 -2 -2 -2 -2 -1 -1 -2 -1 -1 -1 -1 -1 -1 -1
7 5 5 5 5 6 7 6 7 5 5 3 3 3 3 2 2 2 2 1 1 0 0 -0 -1 -0 -1 -1 -0 -1 -0 -1 -1 -1 -2 -1 -0 -1 -1 -1 -1 -1 -2 -1 -1 -1 -1 -1 -1
8 6 5 5 5 5 5 6 6 6 4 3 4 3 3 2 2 1 1 1 1 1 0 -0 -1 -1 -0 -0 -0 -0 -0 -0 -1 -1 -2 -1 -1 -0 -1 -1 -1 -1 -1 -1 -1 -1 -1 -1 -1
6 7 6 5 5 5 6 5 5 5 3 3 3 3 2 2 2 1 1 1 1 0 0 -0 -1 -1 -1 -0 -1 -0 -0 -1 -1 -1 -1 -1 -1 -1 -0 -0 -1 -1 -1 -1 -1 -1 -1 -1 -1
6 8 7 6 6 6 5 7 7 4 4 4 4 3 3 2 2 2 1 1 1 0 -0 -0 -1 -1 -1 -1 -0 -0 -1 -1 -0 -1 -1 -1 -1 -1 -1 -0 -0 -1 -1 -1 -1 -1 -1 -0 -1
8 8 9 7 5 6 6 10 6 4 4 4 4 3 3 3 2 1 1 1 0 0 0 -0 -0 -1 -1 -1 -1 -0 -1 -0 -0 -1 -1 -1 -1 -1 -1 -0 -0 -1 -1 -1 -1 -0 0 0 -0
9 11 10 8 5 5 6 9 6 5 5 5 4 4 3 3 2 1 1 1 0 0 -0 -0 -1 -0 -1 -1 -1 -1 -1 -0 -1 -1 -1 -1 -1 -1 -1 -0 -1 -1 -1 -0 -0 -0 -0 0 -0
11 10 10 10 7 6 7 7 6 6 5 5 5 4 4 4 3 2 2 1 0 -0 -0 -0 -0 -1 -1 -1 -1 -0 -0 -0 -0 -0 -0 -1 -1 -1 -0 -0 -1 -1 -0 -0 -0 -0 -0 0 0
10 10 10 8 7 7 7 7 6 5 5 6 5 5 4 4 3 2 2 1 0 -0 -0 0 0 -0 0 0 1 1 1 1 0 -0 -1 -1 -1 -1 -0 -0 -0 -0 0 -0 -0 -0 1 1 0
10 11 10 8 7 7 8 8 6 5 5 5 5 5 4 4 4 3 2 1 1 1 0 0 0 -0 -0 0 0 0 0 0 0 -0 -0 -1 -0 -0 -0 -0 -0 -0 0 -0 -0 0 1 1 0
11 11 11 10 8 7 8 9 8 5 5 4 4 4 5 4 4 3 3 2 1 1 1 1 -0 -0 -0 -0 0 0 0 1 1 1 1 0 -0 -0 -0 -0 -0 -0 -0 1 0 0 0 2 1
12 9 10 10 10 12 7 13 9 7 6 5 5 4 5 4 3 4 3 2 1 1 0 0 -0 -0 -0 -0 0 1 2 2 1 1 1 1 -0 -0 -0 -0 -0 -0 -0 0 0 -0 0 1 2
9 7 8 9 10 10 10 11 10 7 8 6 5 4 4 3 3 4 3 2 1 0 1 0 -0 -0 -0 -0 0 1 1 1 1 1 1 1 0 0 -0 -1 -0 -0 -0 -0 -0 -0 0 0 1
6 7 8 8 9 13 11 11 11 9 8 7 5 4 4 4 3 3 2 1 1 1 1 0 0 0 0 1 1 1 1 1 2 2 2 2 1 0 -0 -0 -0 -1 -1 -0 -0 -0 -0 0 0
7 9 13 14 14 15 11 11 10 7 7 7 6 5 4 3 3 3 2 2 1 1 1 1 1 1 1 1 1 1 1 1 1 1 1 1 1 1 0 -0 -0 -0 -0 -1 -1 -0 -0 0 1
9 10 13 17 15 14 10 12 11 7 6 5 5 4 4 3 3 3 2 2 2 1 1 2 2 2 1 1 1 1 1 1 1 1 1 1 1 1 -0 -0 -0 -0 -0 -0 -1 -0 0 -0 0
10 12 8 12 12 14 11 9 8 7 6 6 5 5 4 4 3 3 3 2 2 2 2 2 2 2 1 1 1 1 1 1 1 0 0 0 -0 0 -0 -0 -0 -0 -0 -0 -0 0 0 -0 -0
8 7 12 11 18 17 12 11 12 9 8 6 6 5 4 4 4 4 3 3 2 2 2 1 2 2 1 1 1 1 1 1 0 0 0 0 -0 -0 -0 -0 -0 -0 -0 -0 -0 -0 -0 0 0
9 10 11 11 12 16 15 12 7 7 6 6 6 5 4 4 5 4 4 4 3 2 2 2 2 2 2 1 1 1 1 1 0 0 0 0 -0 -0 0 -0 0 0 -0 -0 -0 -0 0 0 1
8 10 13 16 15 11 13 12 6 6 5 6 5 5 4 4 5 5 5 4 3 3 2 2 2 2 1 1 1 1 1 1 1 1 0 -0 0 -0 -0 -0 0 0 0 -0 0 1 0 1 2